{"data":{"norad_id":59029,"epoch":"2026-09-20T13:28:43.226688Z","epoch_age_seconds":150391,"freshness":"FRESH","line1":"1 59029U 24038G   26263.56161142  .00000810  00000+0  38940-4 0  9993","line2":"2 59029  43.0026   6.2787 0001393 267.9948  92.0744 15.27582940144562","mean_motion":15.2758294,"eccentricity":0.0001393,"inclination_deg":43.0026,"raan_deg":6.2787,"arg_perigee_deg":267.9948,"mean_anomaly_deg":92.0744,"bstar":3.894e-5,"rev_number":14456,"period_min":94.266567287011,"perigee_km":482.08453063925,"apogee_km":483.99605463298,"semimajor_km":6861.1772926361,"source":"CELESTRAK","updated_at":"2026-09-21T09:00:34.029041Z"}}